EW7146 Weather Reports


Display with metric or nautical units.
time (UTC)temp
F
wind
direction
speed
MPH
gust
MPH
rain 1hr
in
rain 24hr
in
rain mn
in
humidity
%
barometer
mb
20260503211449 84 159 2.0 7.0 0.00 0.00 0.00 16 1023.7
20260503210949 83 306 1.0 7.0 0.00 0.00 0.00 17 1023.9
20260503210450 84 268 1.0 4.0 0.00 0.00 0.00 17 1023.9
20260503205949 84 348 0.0 3.0 0.00 0.00 0.00 18 1024.0
20260503205450 83 302 0.0 7.0 0.00 0.00 0.00 17 1024.0
20260503205211 83 80 3.0 7.0 0.00 0.00 0.00 18 1024.1
20260503204451 83 49 3.0 6.0 0.00 0.00 0.00 19 1024.1
20260503203948 84 37 1.0 5.0 0.00 0.00 0.00 19 1024.2
20260503203713 84 44 4.0 7.0 0.00 0.00 0.00 19 1024.4
20260503202946 83 62 3.0 7.0 0.00 0.00 0.00 18 1024.5
20260503202448 83 48 1.0 7.0 0.00 0.00 0.00 17 1024.5
20260503201950 83 72 4.0 7.0 0.00 0.00 0.00 19 1024.6
20260503201453 82 79 1.0 7.0 0.00 0.00 0.00 21 1024.7
20260503200950 82 272 2.0 6.0 0.00 0.00 0.00 18 1024.8
20260503200454 83 109 1.0 5.0 0.00 0.00 0.00 20 1025.0
20260503195948 82 127 0.0 4.0 0.00 0.00 0.00 20 1025.0
20260503195448 81 100 2.0 4.0 0.00 0.00 0.00 18 1025.1
20260503195216 81 353 1.0 4.0 0.00 0.00 0.00 19 1025.2
20260503194447 80 94 3.0 7.0 0.00 0.00 0.00 19 1025.4
20260503193947 80 125 3.0 7.0 0.00 0.00 0.00 19 1025.5
20260503193449 81 63 3.0 6.0 0.00 0.00 0.00 19 1025.5
20260503192947 81 90 4.0 6.0 0.00 0.00 0.00 19 1025.6
20260503192448 81 103 4.0 6.0 0.00 0.00 0.00 21 1025.6
20260503191947 80 63 3.0 6.0 0.00 0.00 0.00 21 1025.7
20260503191447 80 106 3.0 6.0 0.00 0.00 0.00 22 1025.7
20260503190947 80 111 2.0 5.0 0.00 0.00 0.00 20 1025.8
20260503190443 79 56 2.0 5.0 0.00 0.00 0.00 22 1026.0
20260503185947 79 110 2.0 5.0 0.00 0.00 0.00 21 1026.1
20260503185713 79 73 2.0 5.0 0.00 0.00 0.00 22 1026.2
20260503184947 79 62 1.0 3.0 0.00 0.00 0.00 25 1026.2
20260503184446 78 28 0.0 3.0 0.00 0.00 0.00 27 1026.3
20260503183948 77 65 1.0 3.0 0.00 0.00 0.00 25 1026.4
20260503183445 77 18 0.0 4.0 0.00 0.00 0.00 28 1026.5
20260503182946 76 128 0.0 4.0 0.00 0.00 0.00 28 1026.6
20260503182446 76 82 2.0 3.0 0.00 0.00 0.00 30 1026.6
20260503181945 75 134 1.0 2.0 0.00 0.00 0.00 30 1026.7
20260503181446 75 104 1.0 3.0 0.00 0.00 0.00 30 1026.8
20260503181206 74 134 1.0 3.0 0.00 0.00 0.00 32 1026.9
20260503180447 74 90 0.0 3.0 0.00 0.00 0.00 34 1026.9
20260503175946 73 79 1.0 3.0 0.00 0.00 0.00 33 1027.0
20260503175447 72 292 1.0 2.0 0.00 0.00 0.00 33 1027.1
20260503174945 72 330 1.0 2.0 0.00 0.00 0.00 36 1027.2
20260503174445 71 72 0.0 2.0 0.00 0.00 0.00 36 1027.2
20260503173942 71 68 1.0 2.0 0.00 0.00 0.00 34 1027.3
20260503173441 71 307 0.0 2.0 0.00 0.00 0.00 35 1027.5
20260503172943 70 106 0.0 3.0 0.00 0.00 0.00 35 1027.6
20260503172444 69 34 0.0 4.0 0.00 0.00 0.00 36 1027.6
20260503171946 69 13 2.0 4.0 0.00 0.00 0.00 36 1027.8
20260503171444 69 290 0.0 3.0 0.00 0.00 0.00 37 1027.8
20260503171208 68 38 2.0 3.0 0.00 0.00 0.00 39 1027.8
20260503170444 67 298 1.0 2.0 0.00 0.00 0.00 40 1027.8
20260503170205 67 276 1.0 3.0 0.00 0.00 0.00 40 1027.9
20260503150942 55 144 0.0 0.0 0.00 0.00 0.00 65 1029.4
20260503150443 54 144 0.0 0.0 0.00 0.00 0.00 66 1029.5
20260503140155 42 52 0.0 0.0 0.00 0.00 0.00 86 1029.7
20260503130937 39 227 0.0 0.0 0.00 0.00 0.00 90 1029.6
20260503130658 38 227 0.0 0.0 0.00 0.00 0.00 89 1029.7
20260503130532 39 227 0.0 0.0 0.00 0.00 0.00 90 1029.7
20260503110437 42 224 0.0 0.0 0.00 0.00 0.00 82 1029.7
20260503090433 48 210 0.0 0.0 0.00 0.00 0.00 72 1029.5
20260503080949 49 216 0.0 0.0 0.00 0.00 0.00 70 1029.3
20260503080808 49 210 0.0 0.0 0.00 0.00 0.00 69 1029.4
20260503072932 50 202 0.0 0.0 0.00 0.00 0.00 68 1029.3
20260503072654 51 199 0.0 0.0 0.00 0.00 0.00 68 1029.2
20260503071933 50 219 0.0 0.0 0.00 0.00 0.00 68 1029.1
20260503071431 51 199 0.0 0.0 0.00 0.00 0.00 67 1029.1
20260503071159 51 204 0.0 0.0 0.00 0.00 0.00 67 1029.3
20260503070430 51 196 0.0 0.0 0.00 0.00 0.00 66 1029.2
20260503070153 51 199 0.0 0.0 0.00 0.00 0.00 66 1029.1
20260503054930 54 248 2.0 3.0 0.00 0.00 0.00 63 1028.5
20260503054428 54 173 1.0 2.0 0.00 0.00 0.00 62 1028.4
20260503054153 54 213 0.0 0.0 0.00 0.00 0.00 61 1028.5
20260503053428 54 234 0.0 0.0 0.00 0.00 0.00 61 1028.4
20260503052929 54 210 0.0 0.0 0.00 0.00 0.00 62 1028.5
20260503052428 54 227 0.0 0.0 0.00 0.00 0.00 63 1028.4
20260503051928 55 241 0.0 0.0 0.00 0.00 0.00 62 1028.4
20260503051428 55 237 0.0 0.0 0.00 0.00 0.00 61 1028.4
20260503051152 55 197 0.0 0.0 0.00 0.00 0.00 61 1028.3
20260503050657 56 233 0.0 0.0 0.00 0.00 0.00 60 1028.2
20260503045928 56 231 0.0 0.0 0.00 0.00 0.00 60 1028.2
20260503045428 56 224 0.0 0.0 0.00 0.00 0.00 59 1028.1
20260503045154 57 254 0.0 0.0 0.00 0.00 0.00 59 1028.1
20260503044429 57 265 0.0 0.0 0.00 0.00 0.00 58 1028.0
20260503043927 58 235 0.0 0.0 0.00 0.00 0.00 58 1028.1
20260503043646 58 235 0.0 3.0 0.00 0.00 0.00 57 1027.9
20260503042928 58 212 1.0 3.0 0.00 0.00 0.00 57 1027.9
20260503042651 58 264 0.0 2.0 0.00 0.00 0.00 58 1027.8
20260503041933 57 241 0.0 2.0 0.00 0.00 0.00 60 1027.7
20260503041427 58 227 1.0 2.0 0.00 0.00 0.00 59 1027.7
20260503040928 58 231 0.0 1.0 0.00 0.00 0.00 58 1027.7
20260503040647 58 234 0.0 1.0 0.00 0.00 0.00 57 1027.7
20260503035926 59 224 0.0 2.0 0.00 0.00 0.00 56 1027.7
20260503035426 59 266 0.0 2.0 0.00 0.00 0.00 55 1027.6
20260503034926 60 259 0.0 1.0 0.00 0.00 0.00 54 1027.5
20260503034427 60 235 0.0 1.0 0.00 0.00 0.00 54 1027.3
20260503033926 60 228 0.0 1.0 0.00 0.00 0.00 54 1027.2
20260503033657 61 214 0.0 0.0 0.00 0.00 0.00 53 1027.1
20260503032925 62 213 0.0 0.0 0.00 0.00 0.00 53 1027.0
20260503032425 62 213 0.0 2.0 0.00 0.00 0.00 52 1026.9
20260503031925 63 213 0.0 2.0 0.00 0.00 0.00 51 1026.9
20260503031426 63 209 2.0 2.0 0.00 0.00 0.00 50 1026.9
20260503030926 64 223 0.0 1.0 0.00 0.00 0.00 48 1026.8
20260503030425 65 223 0.0 2.0 0.00 0.00 0.00 46 1026.7
20260503030159 65 221 0.0 2.0 0.00 0.00 0.00 46 1026.6
20260503025424 65 224 2.0 2.0 0.00 0.00 0.00 47 1026.5
20260503024927 67 216 1.0 2.0 0.00 0.00 0.00 45 1026.5
20260503024425 68 235 0.0 2.0 0.00 0.00 0.00 44 1026.4
20260503023924 69 212 1.0 2.0 0.00 0.00 0.00 42 1026.4
20260503023424 69 219 0.0 1.0 0.00 0.00 0.00 40 1026.4
20260503022924 71 243 0.0 3.0 0.00 0.00 0.00 40 1026.3
20260503022425 73 268 0.0 3.0 0.00 0.00 0.00 36 1026.4
20260503021924 74 316 0.0 2.0 0.00 0.00 0.00 33 1026.3
20260503021424 75 221 1.0 4.0 0.00 0.00 0.00 32 1026.2
20260503020925 74 234 1.0 4.0 0.00 0.00 0.00 33 1026.3
20260503020426 74 268 1.0 3.0 0.00 0.00 0.00 35 1026.4
20260503015923 74 262 1.0 3.0 0.00 0.00 0.00 37 1026.6
20260503015423 75 274 0.0 1.0 0.00 0.00 0.00 40 1026.6
20260503014924 75 275 0.0 2.0 0.00 0.00 0.00 34 1026.6
20260503014423 76 254 0.0 2.0 0.00 0.00 0.00 33 1026.5
20260503013924 77 252 1.0 2.0 0.00 0.00 0.00 31 1026.5
20260503013423 78 252 0.0 3.0 0.00 0.00 0.00 29 1026.5
20260503012925 78 230 1.0 3.0 0.00 0.00 0.00 28 1026.6
20260503012423 78 221 1.0 3.0 0.00 0.00 0.00 28 1026.6
20260503012142 78 266 0.0 2.0 0.00 0.00 0.00 27 1026.6
20260503011422 78 165 0.0 2.0 0.00 0.00 0.00 27 1026.6
20260503010922 78 231 1.0 3.0 0.00 0.00 0.00 27 1026.6
20260503010422 78 274 0.0 3.0 0.00 0.00 0.00 28 1026.6
20260503005922 78 234 0.0 3.0 0.00 0.00 0.00 28 1026.6
20260503005423 77 251 1.0 3.0 0.00 0.00 0.00 29 1026.7
20260503004922 77 245 1.0 4.0 0.00 0.00 0.00 29 1026.7
20260503004423 77 248 1.0 4.0 0.00 0.00 0.00 30 1026.7
20260503003924 77 255 1.0 5.0 0.00 0.00 0.00 33 1026.7
20260503003423 76 192 2.0 5.0 0.00 0.00 0.00 31 1026.8
20260503002927 76 172 4.0 9.0 0.00 0.00 0.00 31 1026.7
20260503002421 76 140 5.0 10.0 0.00 0.00 0.00 30 1026.7
20260503001922 76 134 4.0 10.0 0.00 0.00 0.00 30 1026.7
20260503001422 76 141 5.0 9.0 0.00 0.00 0.00 31 1026.8
20260503000923 75 123 2.0 10.0 0.00 0.00 0.00 32 1026.9
20260503000432 74 216 4.0 10.0 0.00 0.00 0.00 35 1026.9
20260503000408 75 176 5.0 9.0 0.00 0.00 0.00 32 1027.0
20260502235421 76 56 3.0 7.0 0.00 0.00 0.00 27 1026.9
20260502235145 76 71 2.0 6.0 0.00 0.00 0.00 28 1027.1
20260502234421 77 281 0.0 1.0 0.00 0.00 0.00 29 1027.0
20260502233920 78 262 0.0 1.0 0.00 0.00 0.00 26 1026.9
20260502233420 78 196 0.0 2.0 0.00 0.00 0.00 25 1026.8
20260502232920 78 196 0.0 5.0 0.00 0.00 0.00 25 1026.9
20260502232421 79 157 2.0 5.0 0.00 0.00 0.00 25 1026.9
20260502231919 80 233 0.0 10.0 0.00 0.00 0.00 25 1026.8
20260502231422 80 62 3.0 10.0 0.00 0.00 0.00 25 1026.8
20260502230920 80 125 4.0 9.0 0.00 0.00 0.00 24 1026.8
20260502230422 80 157 4.0 7.0 0.00 0.00 0.00 24 1026.8
20260502225920 80 182 4.0 6.0 0.00 0.00 0.00 25 1027.0
20260502225419 79 148 3.0 6.0 0.00 0.00 0.00 25 1027.0
20260502224920 79 172 4.0 6.0 0.00 0.00 0.00 26 1027.1
20260502224419 78 134 5.0 6.0 0.00 0.00 0.00 27 1027.2
20260502224143 77 133 2.0 5.0 0.00 0.00 0.00 27 1027.2
20260502223419 78 145 2.0 5.0 0.00 0.00 0.00 27 1027.3
20260502222921 78 111 2.0 5.0 0.00 0.00 0.00 25 1027.3
20260502222419 78 250 0.0 3.0 0.00 0.00 0.00 23 1027.3
20260502222148 77 128 0.0 9.0 0.00 0.00 0.00 25 1027.5
20260502221418 77 102 3.0 9.0 0.00 0.00 0.00 25 1027.5
20260502220918 77 135 3.0 5.0 0.00 0.00 0.00 25 1027.6
20260502220419 77 110 2.0 6.0 0.00 0.00 0.00 27 1027.7
20260502220149 77 121 2.0 6.0 0.00 0.00 0.00 27 1027.7
20260502215419 78 121 4.0 11.0 0.00 0.00 0.00 27 1027.8
20260502214918 78 92 4.0 11.0 0.00 0.00 0.00 27 1027.6
20260502214420 78 178 1.0 5.0 0.00 0.00 0.00 28 1027.8
20260502213918 78 87 2.0 5.0 0.00 0.00 0.00 27 1027.8
20260502213418 78 100 1.0 7.0 0.00 0.00 0.00 29 1027.8
20260502212918 77 109 2.0 9.0 0.00 0.00 0.00 28 1027.8
20260502212417 77 124 4.0 9.0 0.00 0.00 0.00 27 1027.9
20260502211918 78 116 3.0 6.0 0.00 0.00 0.00 27 1028.0